SBIRS GEO-5 (USA 315)

Last updated on Tue Sep 22 2026 00:03:15 GMT+0000 (Coordinated Universal Time)

1 48618U 21042A 26264.57894442 -.00000271 00000+0 00000+0 0 9998 2 48618 4.9907 329.8734 0002013 211.5205 121.2865 1.00271849 19733
UTC large
Height (km)
Speed (km/s)
/
Latitude / Longitude
Inclination (degrees)
Orbital Period (minutes)
Azimuth
Elevation
Range (km)
Doppler Factor

Next 0 passes for location: London (51.5072 / 0.1276)

No passes found over London.
SBIRS GEO-5 (USA 315)